Location: Oulou
(10.7667°N, 12.5167°W)
Time: 04:58:06
(UTC+00:00)

Cosmos 1371 Rocket - Pass Details

Date: 20 September 2019
Orbit: 753 x 790 km, 74.0° (Epoch: 23 October)

Event Time Altitude Azimuth Distance (km) Brightness Sun altitude
Rises 19:08:22 0° 181° (S) 3,217 7.2 -5.9°
Reaches altitude 10° 19:10:47 10° 176° (S) 2,297 6.4 -6.5°
Maximum altitude 19:15:49 50° 101° (ESE) 980 4.2 -7.8°
Drops below altitude 10° 19:20:54 10° 27° (NNE) 2,321 6.3 -9.0°
Sets 19:23:21 0° 22° (NNE) 3,253 7.1 -9.6°
